Catano, PR (00962)

1:37 AM AST on February 13, 2016 (GMT -0400)
KP4MP DAVIS | | Change Station
CLOSE
Current Station
Personal Weather Station
Location: Sabana Seca, TOA BAJA
Elevation: 17 ft
Nearby Weather Stations
Active Advisory: Coastal Hazard Statement

Elev 17 ft 18.44 °N, 66.18 °W | Updated 1 second ago

Clear
Clear
74.1 °F
Feels Like 74 °F
N
0.0
Wind Variable Wind from SE
Gusts 0.0 mph

Today
High -- | Low -- °F
--% Chance of Precip.
Yesterday
High -- | Low -- °F
Precip. -- in
Pressure 30.05 in
Visibility 10.0 miles
Clouds Clear
Heat Index 74 °F
Dew Point 69 °F
Humidity 85%
Rainfall 0.00 in
Snow Depth Not available.
6:53 AM 6:24 PM
Waxing Crescent, 27% visible
METAR TJSJ 130456Z 00000KT 10SM CLR 24/21 A3005 RMK AO2 SLP176 T02390206
Pressure 30.05 in
Visibility 10.0 miles
Clouds Clear
Heat Index 74 °F
Dew Point 69 °F
Humidity 85%
Rainfall 0.00 in
Snow Depth Not available.
6:53 AM 6:24 PM
Waxing Crescent, 27% visible
METAR TJSJ 130456Z 00000KT 10SM CLR 24/21 A3005 RMK AO2 SLP176 T02390206

10-Day Weather Forecast

Almanac

Astronomy

Feb. 13, 2016 Rise Set
Actual Time
Civil Twilight
Nautical Twilight
Astronomical Twilight
Moon
Length of Visible Light
Length of Day
Tomorrow will be .
, % of the Moon is Illuminated

Today's Extremes

State Highs State Lows

Community

WunderPhotos

Upload Photos

1,892,508 photos uploaded!

WunderBlog® & News

Nearby

Air Quality

  Air Quality AQ Index Pollutant
Not available.

Snow Depth

Station Depth Elevation

Earthquake Activity

City Distance Mag. Time & Date
Minimum magnitude displayed is 2.5.

Coastal Water Temperatures

Place Temperature

Stations

Nearby Weather Stations

Station Location Temp. Windchill Dew Point Humidity Wind Precip. Elev Updated Type
                   

Watches & Warnings

Coastal Hazard Statement
Issued: 10:14 PM AST Feb. 12, 2016 – National Weather Service

... High rip current risk now in effect through Saturday
afternoon...

* location... north facing beaches of northeastern Puerto Rico.

* Timing... through at least Saturday afternoon.

* Impacts... large breaking waves will create strong rip currents.

Precautionary/preparedness actions...

There is a high risk of rip currents.

Rip currents are powerful channels of water flowing quickly away
from shore... which occur most often at low spots or breaks in The
Sandbar and in the vicinity of structures such as groins...
jetties and piers. Heed the advice of lifeguards... beach patrol
flags and signs.

If you become caught in a rip current... Yell for help. Remain
calm... do not exhaust yourself and stay afloat while waiting for
help. If you have to swim out of a rip current... swim parallel to
shore and back toward the beach when possible. Do not attempt to
swim directly against a rip current as you will tire quickly.